sat.trackr.live / text

‹ back to catalog

STARLINK-31922

NORAD 59846 · 2024-097M

PAYLOAD ACTIVE UNKNOWN

§ Identity

Operator
Country
US
Launch date
2024-05-23
Launch site
AFETR
Launch vehicle
Mass (kg)
RCS (m²)

Purposes: comms

External: N2YO · Heavens-Above · Gunter

§ Orbital elements

Epoch: 2026-05-25T05:07:16.108896Z

Period
94.27 min
Inclination
43.0022°
Eccentricity
0.0001358
Mean motion
15.27582784 rev/d
Perigee alt
482.1 km
Apogee alt
484.0 km
Semi-major
6,861.2 km
B*
-1.2509e-6
RAAN
201.8890°
Arg perigee
280.3556°
Mean anomaly
79.7142°
Rev number
11,362

§ Raw data

STARLINK-319221 59846U 24097M   26145.21338089 -.00000297  00000+0 -12509-5 0  99972 59846  43.0022 201.8890 0001358 280.3556  79.7142 15.27582784113621

JSON: /api/v1/satellites/59846 · /tle

For live sub-satellite position, see the globe view (requires WebGL).

§ Visibility from observer

Set your observer location to see the next 7 days of passes ≥ 10°. The values pass through the URL so the page stays shareable.

No JS? Fill the form by hand. The geolocation button needs JavaScript.